Regional Weather Roundup
Issued by NWS Wakefield, VA

Home | Current Version | Previous Version | Graphics & Text | Print | Product List | Glossary On
Versions: 1 2 3 4 5 6 7 8 9 10 11 12 13 14 15 16 17 18 19 20 21 22 23 24 25 26 27
000
ASUS41 KAKQ 271315
RWRAKQ

REGIONAL WEATHER ROUNDUP
NATIONAL WEATHER SERVICE WAKEFIELD VA
900 AM EDT SAT AUG 27 2016

Note: "fair" indicates few or no clouds below 12,000 feet with no
significant weather and/or obstructions to visibility. * = Denotes
station may not report precipitation (e.g., rain,snow,etc.),
thunder or fog.

VAZ042-051-052>054-056-271400-
NORTHERN VIRGINIA

CITY           SKY/WX    TMP DP  RH WIND       PRES   REMARKS
WASH NATIONAL  MOSUNNY   82  70  66 NE9       30.17S
DULLES         MOSUNNY   81  67  62 NE6       30.18R
FORT BELVOIR   SUNNY     82  70  65 VRB2      30.16R
QUANTICO       SUNNY     83  71  67 E8        30.16S
FREDERICKSBRG* SUNNY     82  74  76 NE5       30.15S
STAFFORD*      SUNNY     82  70  67 NE7       30.20S
WARRENTON      SUNNY     81  66  61 NE5       30.17S
CULPEPER*      SUNNY     80  72  77 CALM      30.18S
MANASSAS*      SUNNY     81  72  74 NE5       30.17R
LEESBURG*      SUNNY     79  70  73 N6        30.20R
WINCHESTER     SUNNY     77  68  73 CALM      30.20S
FRONT ROYAL*   FAIR      73  70  88 CALM      30.19S
LURAY*         FAIR     N/A N/A N/A CALM      30.20F
$$

VAZ048-049-060>072-079>083-271400-
CENTRAL AND SOUTH CENTRAL VIRGINIA

CITY           SKY/WX    TMP DP  RH WIND       PRES   REMARKS
RICHMOND       MOSUNNY   84  72  67 NE10      30.14R
CHESTERFIELD*  FAIR      84  63  48 E6        30.15R
PETERSBURG*    SUNNY     86  74  68 NE7       30.13S
HANOVER        SUNNY     82  73  74 E5        30.16R
TAPPAHANNOCK*  MOSUNNY   82  76  82 NE5       30.15S
QUINTON*       FAIR      82  74  75 NE5       30.13S
CHARLOTTSVILLE MOSUNNY   81  70  69 VRB3      30.18R
GORDONSVILLE*  PTSUNNY   81  72  74 NE7       30.17R
ORANGE*          N/A     81  73  78 CALM      30.19R
LOUISA*        SUNNY     82  79  89 CALM      30.16S
BUMPASS*       FAIR      80  76  88 E3        30.16R
FARMVILLE*     SUNNY     80  78  95 N7        30.14R
CREWE*         FAIR      81  76  84 NE3       30.14R
FORT PICKETT*  NOT AVBL
CHASE CITY*    FAIR      82  77  86 NE3       30.14R
CLARKSVILLE*   FAIR      81  75  83 NE3       30.13R
SOUTH HILL*    SUNNY     80  75  85 CALM      30.19R
LAWRENCEVILLE* FAIR      81  76  84 NE5       30.13R
EMPORIA*       PTSUNNY   79  75  89 CALM      30.13R
$$

VAZ088>098-271400-
SOUTHEAST VIRGINIA

CITY           SKY/WX    TMP DP  RH WIND       PRES   REMARKS
NORFOLK        SUNNY     84  76  76 NE9       30.11S
VIRGINIA BEACH MOSUNNY   90  75  61 E6        30.11R HX 100
NORFOLK NAVAL  MOSUNNY   86  73  65 NE10      30.13R
WEST POINT*    SUNNY     83  72  69 NE7       30.15R
SALUDA*        FAIR      83  72  70 NE8       30.14R
NEWPORT NEWS   SUNNY     85  74  69 NE10      30.13R
LANGLEY AFB    SUNNY     85  74  67 NE9       30.12R
FORT EUSTIS    SUNNY     88  74  62 E8        30.10R HX  96
WILLIAMSBURG*  SUNNY     84  77  79 CALM      30.13S
HR EXEC AP*    FAIR      84  77  79 NE6       30.13S
FRANKLIN*      SUNNY     81  76  85 E3        30.12S
US460-WAKEFLD  SUNNY     84  76  76 E7        30.12R
$$

VAZ020-022-025-037-045-271400-
WEST CENTRAL AND SOUTHWEST VIRGINIA

CITY           SKY/WX    TMP DP  RH WIND       PRES   REMARKS
STAUNTON*      PTSUNNY   71  69  93 CALM      30.24R
WAYNESBORO*    CLOUDY    72  70  92 CALM      30.23S
HOT SPRINGS VA SUNNY     72  64  77 E8        30.33S
LYNCHBURG      SUNNY     80  69  69 NE12G18   30.18S
DANVILLE       SUNNY     80  74  81 NE7       30.15R
SOUTH BOSTON*  FAIR      80  78  94 N3        30.14R
MARTINSVILLE   SUNNY     76  71  83 N3        30.20R
ROANOKE        SUNNY     79  71  76 N7        30.21S
BLACKSBURG     SUNNY     75  71  87 E3        30.28R
DUBLIN*        FOG       69  69 100 CALM      30.26S VSB<1/4
MARION*        SUNNY     72  69  88 NE5       30.28S
HILLSVILLE*    SUNNY     70  69  96 CALM      30.26S
RICHLANDS*     FAIR      76  70  82 E3        30.25S
WISE*          SUNNY     77  59  53 CALM      30.26R
ABINGDON*      SUNNY     74  69  82 E7        30.22S
$$

MDZ021>025-VAZ099-100-271400-
SOUTHERN MARYLAND AND THE DELMARVA PENINSULA

CITY           SKY/WX    TMP DP  RH WIND       PRES   REMARKS
PATUXENT RIVER MOSUNNY   81  67  62 E12       30.15R
BAY BRIDGE APT SUNNY     79  70  73 NE3       30.17S
LEONARDTOWN    SUNNY     79  66  65 E5        30.17R
DOVER          SUNNY     78  72  82 NE9       30.15S
GEORGETOWN     NOT AVBL
EASTON         SUNNY     81  73  78 NE5       30.20R
CAMBRIDGE      SUNNY     77  66  69 NE7       30.15S
SALISBURY      SUNNY     79  67  66 NE9       30.15R
OCEAN CITY     SUNNY     82  69  64 NE8       30.14R
WALLOPS ISLAND SUNNY     82  62  50 NE14G20   30.14R
ACCOMACK*      SUNNY     82  69  66 NE7       30.14R
$$

NCZ012>017-030>032-271400-
NORTH CENTRAL AND EASTERN NORTH CAROLINA

CITY           SKY/WX    TMP DP  RH WIND       PRES   REMARKS
ROANOKE RAPIDS FAIR      79  73  83 CALM      30.12R
RALEIGH        MOSUNNY   82  74  76 W3        30.12S
ELIZABETH CITY SUNNY     82  75  79 W5        30.12R
AHOSKIE*       SUNNY     76  74  93 CALM      30.12S
EDENTON*       PTSUNNY   83  73  71 NW5       30.12S
CURRITUCK*       N/A     81  76  85 CALM      30.12S
KILL DEVIL HLS SUNNY     85  78  79 W5        30.10S HX  95
MANTEO         SUNNY     81  75  82 W6        30.11S
CAPE HATTERAS  SUNNY     84  74  71 NW6       30.11S
TARBORO*       PTSUNNY   79  74  84 CALM      30.12R
GOLDSBORO      NOT AVBL
WASHINGTON     SUNNY     80  73  78 W3        30.12R
GREENVILLE     SUNNY     81  73  78 CALM      30.13R
NEW BERN       SUNNY     82  73  74 NW3       30.13R
WILMINGTON     SUNNY     81  73  76 NE3       30.10S
$$

VAZ048-271400-
ELSEWHERE

CITY           SKY/WX    TMP DP  RH WIND       PRES   REMARKS
HARRISBURG PA  MOSUNNY   76  69  79 CALM      30.20R
BALTIMORE      MOSUNNY   81  66  60 NE9       30.17S
ANNAPOLIS      SUNNY     82  71  69 NE8       30.17R
ANDREWS AFB    SUNNY     80  70  69 NE8       30.16S
PHILADELPHIA   MOSUNNY   81  63  54 NE9       30.18R
HENDERSON NC   SUNNY     79  73  82 CALM      30.13R
GREENSBORO     MOSUNNY   80  73  79 NE8       30.15R
ROCKY MOUNT    SUNNY     81  75  82 VRB3      30.11S
$$

VAZ100-271400-
MARINE

STATION/POSITION TIME  TEMP    WIND        PRES    WAVE   SWELL
                       AIR SEA DIR/SP/G            HT/PER HT/PER
                 (UTC) (F)     (DEG/KT/KT) (MB)    (FT/S) (FT/S)
BRANDYWINE LGT   1200   77      60/ 11/ 13   N/A
CAPE MAY NJ      1200   79 75   60/  6/ 11 1020.4R
LEWES DE         1200   77 76   70/ 10/ 12 1020.6R
OCEAN-CITY-INLET 1200   78 71   60/  4/  9 1020.7R
WACHAPREAGUE VA  1200   81 82   40/  7/ 11 1020.0R
THOMAS POINT MD  1300   79 82   50/  8/  9 1022.8R
GOOSES REEF MD   1200   82 83   70/ 12/ 14 1021.3R   1/ 2
COVE POINT MD    1200   80      90/ 12/ 14 1021.2R
SOLOMONS ISLAND  1200   81 84   60/ 10/ 12   N/A
PINEY POINT MD   1200           90/  6/  9   N/A
POTOMAC MD       1200   83 83   70/ 14/ 16 1019.3R   1/ 2
CAMBRIDGE MD     1200   79 84   60/ 10/ 12 1020.0R
LEWISETTA VA     1200   83 84   90/ 11/ 13 1020.0R
RAPPAHANNOCK LGT 1200           50/ 12/ 13 1020.6R
STINGRAY PT      1200   84 83   10/ 12/ 14 1020.5R   2/ 3
YORK RVR RNG VA  1200   84      60/ 12/ 13 1019.4R
YORKTOWN VA      1200   83 83   50/  6/  7 1019.4R
JAMESTOWN VA     1200   83 85   50/  4/  8   N/A     0
DOMINION TERM VA 1200   84      60/  6/  8 1019.6R
KIPTOPEKE VA     1200      81   60/  6/  9   N/A
CHES BAY BRIDGE  1200   81 79   20/  7/  8 1019.4R
CAPE HENRY VA    1200   80      20/  7/  7   N/A
WILLOUBY STN VA  1200   82      40/  6/  7   N/A
CAPE HENRY BUOY  1212      79                N/A     2/10
1ST LANDING BUOY 1200   81 80   40/  6/  8 1019.5R   1/ 5
CAPE CHARLES BUO 1226      78                N/A     2/10   2/11
OFFSHORE WE BUOY 1221      79                N/A     2/11   2/11
64NM E OF VA BCH 1250   80 80  310/  8/  8 1019.2R   2/ 8   2/ 8
DUCK PIER NC     1200   80 63  250/  7/  8 1018.9R
44100 DUCK FRF   1205      78                N/A     2/ 8
44056 DUCK FRF   1211      78                N/A     2/11   2/11
OREGON INLET NC  1200   81 82  260/  5/  7 1019.5R
HATTERAS NC      1200   81 83  300/  6/  6 1019.3R
DIAMOND SHLS NC  1250   82 85  340/  8/ 10 1019.5S   3/11   3/11
CAPE LOOKOUT NC  1300   82      10/  4/  6 1019.2R
$$




USA.gov is the U.S. government's official web portal to all federal, state and local government web resources and services.